| time (UTC) | temp F | wind direction | speed knots | gust knots | rain 1hr in | rain 24hr in | rain mn in | humidity % | barometer mb |
| 20260505193005 | 0 | 56 | 1.7 | 5.2 | 0.00 | 0.00 | 0.00 | 1006.6 | |
| 20260505191559 | 0 | 355 | 0.0 | 3.5 | 0.00 | 0.00 | 0.00 | 1006.7 | |
| 20260505190054 | 0 | 19 | 0.0 | 3.5 | 0.00 | 0.00 | 0.00 | 1006.5 | |
| 20260505184551 | 0 | 57 | 0.9 | 2.6 | 0.00 | 0.00 | 0.00 | 1006.4 | |
| 20260505183046 | 0 | 59 | 0.0 | 0.0 | 0.00 | 0.00 | 0.00 | 1006.3 | |
| 20260505181541 | 0 | 79 | 0.9 | 3.5 | 0.00 | 0.00 | 0.00 | 1006.3 | |
| 20260505180057 | 0 | 350 | 0.0 | 3.5 | 0.00 | 0.00 | 0.00 | 1006.3 | |
| 20260505174549 | 0 | 331 | 1.7 | 3.5 | 0.00 | 0.00 | 0.00 | 1006.3 | |
| 20260505173033 | 0 | 67 | 0.9 | 4.3 | 0.00 | 0.00 | 0.00 | 1006.3 | |
| 20260505171525 | 0 | 45 | 1.7 | 8.7 | 0.00 | 0.00 | 0.00 | 1006.4 | |
| 20260505170018 | 0 | 44 | 0.0 | 7.0 | 0.00 | 0.00 | 0.00 | 1006.4 | |
| 20260505164517 | 0 | 36 | 2.6 | 7.8 | 0.00 | 0.00 | 0.00 | 1006.4 | |
| 20260505163019 | 0 | 347 | 2.6 | 8.7 | 0.00 | 0.00 | 0.00 | 1006.4 | |
| 20260505161509 | 0 | 53 | 3.5 | 8.7 | 0.00 | 0.00 | 0.00 | 1006.4 | |
| 20260505153056 | 0 | 15 | 0.0 | 7.8 | 0.00 | 0.00 | 0.00 | 1006.5 | |
| 20260505151552 | 0 | 63 | 0.0 | 0.0 | 0.00 | 0.00 | 0.00 | 1006.5 | |
| 20260505124507 | 0 | 63 | 2.6 | 10.4 | 0.00 | 0.00 | 0.00 | 1007.2 | |
| 20260505123002 | 0 | 41 | 2.6 | 9.6 | 0.00 | 0.00 | 0.00 | 1007.2 | |
| 20260505121501 | 0 | 21 | 2.6 | 10.4 | 0.00 | 0.00 | 0.00 | 1007.1 | |
| 20260505120057 | 0 | 40 | 3.5 | 9.6 | 0.00 | 0.00 | 0.00 | 1007.1 | |
| 20260505114552 | 0 | 355 | 2.6 | 8.7 | 0.00 | 0.00 | 0.00 | 1007.1 | |
| 20260505113053 | 0 | 44 | 4.3 | 8.7 | 0.00 | 0.00 | 0.00 | 1007.3 | |
| 20260505111545 | 0 | 65 | 0.0 | 7.0 | 0.00 | 0.00 | 0.00 | 1007.3 | |
| 20260505101533 | 0 | 51 | 3.5 | 11.3 | 0.00 | 0.00 | 0.00 | 1007.5 | |
| 20260505100024 | 0 | 336 | 2.6 | 7.8 | 0.00 | 0.00 | 0.00 | 1007.6 | |
| 20260505094517 | 0 | 76 | 0.0 | 9.6 | 0.00 | 0.00 | 0.00 | 1007.7 | |
| 20260505093022 | 0 | 53 | 2.6 | 8.7 | 0.00 | 0.00 | 0.00 | 1007.7 | |
| 20260505091508 | 0 | 54 | 2.6 | 11.3 | 0.00 | 0.00 | 0.00 | 1007.8 | |
| 20260505090003 | 0 | 32 | 3.5 | 13.9 | 0.00 | 0.00 | 0.00 | 1007.9 | |
| 20260505084601 | 0 | 345 | 2.6 | 10.4 | 0.00 | 0.00 | 0.00 | 1008.0 | |
| 20260505083200 | 0 | 333 | 1.7 | 7.8 | 0.00 | 0.00 | 0.00 | 1008.0 | |
| 20260505081603 | 0 | 51 | 3.5 | 7.8 | 0.00 | 0.00 | 0.00 | 1008.1 | |
| 20260505080113 | 0 | 21 | 3.5 | 10.4 | 0.00 | 0.00 | 0.00 | 1008.2 | |
| 20260505074607 | 0 | 347 | 0.9 | 7.8 | 0.00 | 0.00 | 0.00 | 1008.0 | |
| 20260505073056 | 0 | 355 | 1.7 | 7.8 | 0.00 | 0.00 | 0.00 | 1007.9 | |
| 20260505071557 | 0 | 355 | 3.5 | 7.8 | 0.00 | 0.00 | 0.00 | 1008.0 | |
| 20260505070050 | 0 | 52 | 0.9 | 9.6 | 0.00 | 0.00 | 0.00 | 1008.0 | |
| 20260505064542 | 0 | 33 | 1.7 | 7.8 | 0.00 | 0.00 | 0.00 | 1008.2 | |
| 20260505063048 | 0 | 333 | 2.6 | 4.3 | 0.00 | 0.00 | 0.00 | 1008.1 | |
| 20260505061603 | 0 | 59 | 3.5 | 7.8 | 0.00 | 0.00 | 0.00 | 1008.0 | |
| 20260505060030 | 0 | 61 | 1.7 | 5.2 | 0.00 | 0.00 | 0.00 | 1008.0 | |
| 20260505054524 | 0 | 40 | 0.0 | 3.5 | 0.00 | 0.00 | 0.00 | 1008.1 | |
| 20260505053021 | 0 | 5 | 0.0 | 0.0 | 0.00 | 0.00 | 0.00 | 1008.1 | |
| 20260505051531 | 0 | 31 | 0.0 | 0.9 | 0.00 | 0.00 | 0.00 | 1008.3 | |
| 20260505041601 | 0 | 334 | 0.9 | 3.5 | 0.00 | 0.00 | 0.00 | 1008.4 | |
| 20260505040056 | 0 | 51 | 0.0 | 0.0 | 0.00 | 0.00 | 0.00 | 1008.3 | |
| 20260505034551 | 0 | 53 | 0.0 | 0.0 | 0.00 | 0.00 | 0.00 | 1008.3 | |
| 20260505033046 | 0 | 51 | 0.0 | 0.0 | 0.00 | 0.00 | 0.00 | 1008.4 | |
| 20260505031546 | 0 | 51 | 0.0 | 2.6 | 0.00 | 0.00 | 0.00 | 1008.5 | |
| 20260505030038 | 0 | 44 | 0.0 | 1.7 | 0.00 | 0.00 | 0.00 | 1008.5 | |
| 20260505024533 | 0 | 36 | 1.7 | 4.3 | 0.00 | 0.00 | 0.00 | 1008.7 | |
| 20260505023028 | 0 | 19 | 0.0 | 3.5 | 0.00 | 0.00 | 0.00 | 1008.7 | |
| 20260505021524 | 0 | 19 | 0.0 | 2.6 | 0.00 | 0.00 | 0.00 | 1008.7 | |
| 20260505020020 | 0 | 31 | 0.0 | 0.0 | 0.00 | 0.00 | 0.00 | 1008.7 | |
| 20260505014514 | 0 | 28 | 0.0 | 0.9 | 0.00 | 0.00 | 0.00 | 1008.7 | |
| 20260505013010 | 0 | 360 | 0.0 | 4.3 | 0.00 | 0.00 | 0.00 | 1008.9 | |
| 20260505011507 | 0 | 5 | 0.9 | 2.6 | 0.00 | 0.00 | 0.00 | 1009.0 | |
| 20260505010002 | 0 | 49 | 0.9 | 5.2 | 0.00 | 0.00 | 0.00 | 1009.1 | |
| 20260505004557 | 0 | 54 | 0.9 | 3.5 | 0.00 | 0.00 | 0.00 | 1009.3 | |
| 20260505003057 | 0 | 31 | 0.9 | 5.2 | 0.00 | 0.00 | 0.00 | 1009.4 | |
| 20260505001549 | 0 | 69 | 0.0 | 3.5 | 0.00 | 0.00 | 0.00 | 1009.4 | |
| 20260505000047 | 0 | 24 | 0.0 | 5.2 | 0.00 | 0.00 | 0.00 | 1009.5 | |
| 20260504234539 | 0 | 20 | 0.0 | 0.0 | 0.00 | 0.00 | 0.00 | 1009.5 | |
| 20260504233038 | 0 | 36 | 0.9 | 4.3 | 0.00 | 0.00 | 0.00 | 1009.4 | |
| 20260504231530 | 0 | 54 | 0.0 | 3.5 | 0.00 | 0.00 | 0.00 | 1009.6 | |
| 20260504230026 | 0 | 55 | 0.0 | 2.6 | 0.00 | 0.00 | 0.00 | 1009.6 | |
| 20260504224624 | 0 | 44 | 0.0 | 5.2 | 0.00 | 0.00 | 0.00 | 1009.7 | |
| 20260504223023 | 0 | 53 | 0.9 | 4.3 | 0.00 | 0.00 | 0.00 | 1009.7 | |
| 20260504221522 | 0 | 12 | 0.9 | 4.3 | 0.00 | 0.00 | 0.00 | 1009.8 | |
| 20260504220022 | 0 | 24 | 2.6 | 7.0 | 0.00 | 0.00 | 0.00 | 1009.4 | |
| 20260504214520 | 0 | 355 | 0.9 | 3.5 | 0.00 | 0.00 | 0.00 | 1009.6 | |
| 20260504213018 | 0 | 55 | 0.0 | 2.6 | 0.00 | 0.00 | 0.00 | 1009.7 | |
| 20260504211511 | 0 | 11 | 0.0 | 7.0 | 0.00 | 0.00 | 0.00 | 1009.8 | |
| 20260504210006 | 0 | 38 | 1.7 | 5.2 | 0.00 | 0.00 | 0.00 | 1009.7 | |
| 20260504204503 | 0 | 9 | 1.7 | 3.5 | 0.00 | 0.00 | 0.00 | 1009.8 | |
| 20260504203108 | 0 | 17 | 0.9 | 3.5 | 0.00 | 0.00 | 0.00 | 1009.7 | |
| 20260504201554 | 0 | 38 | 0.9 | 3.5 | 0.00 | 0.00 | 0.00 | 1009.6 | |
| 20260504200050 | 0 | 331 | 0.0 | 0.0 | 0.00 | 0.00 | 0.00 | 1009.5 | |
| 20260504194555 | 0 | 40 | 0.0 | 0.0 | 0.00 | 0.00 | 0.00 | 1009.3 |